Change the Weather History Date:

Thursday, March 22, 2012

  Actual Average Record
Temperature  
Mean Temperature 41 °F -  
Max Temperature 50 °F 58 °F 75 °F (2004)
Min Temperature 32 °F 38 °F 25 °F (1966)
Degree Days  
Heating Degree Days 24    
Moisture  
Dew Point 32 °F    
Average Humidity 81    
Maximum Humidity 100    
Minimum Humidity 44    
Precipitation  
Precipitation 0.24 in - - ()
Sea Level Pressure  
Sea Level Pressure 29.93 in    
Wind  
Wind Speed 8 mph (SSW)    
Max Wind Speed 17 mph    
Max Gust Speed 26 mph    
Visibility 5 miles    
Events Fog , Snow    
Averages and records for this station are not official NWS values.
T = Trace of Precipitation, MM = Missing Value Source: NWS Daily Summary

Daily Weather History Graph

Daily Weather History Graph

Search for Another Location

Airport or City:

Trip Planner

Search our weather history database for the weather conditions in past years. The results will help you decide how hot, cold, wet, or windy it might be!

Date:

Astronomy

Mar. 22, 2012 Rise Set
Actual Time 6:51 AM PDT 7:09 PM PDT
Civil Twilight 6:21 AM PDT 7:39 PM PDT
Nautical Twilight 5:46 AM PDT 8:14 PM PDT
Astronomical Twilight 5:09 AM PDT 8:50 PM PDT
Moon 6:29 AM PDT (3/22) 7:43 PM PDT (3/22)
Length of Visible Light 13h 17m
Length of Day
12h 18m
New Moon, 0% of the Moon is Illuminated
Mar 22
New Moon
Mar 30
First Quarter
Apr 6
Full
Apr 13
Last Quarter
Apr 21
New

Hourly Weather History & Observations

Time (PDT) Temp. Windchill Dew Point Humidity Pressure Visibility Wind Dir Wind Speed Gust Speed Precip Events Conditions
12:53 AM 37.0 °F 32.4 °F 35.1 °F 93% 29.78 in 4.0 mi SSW 5.8 mph - N/A   Overcast
1:35 AM 35.6 °F 32.8 °F 33.8 °F 93% 29.74 in 1.5 mi WSW 3.5 mph - N/A   Overcast
1:53 AM 36.0 °F - 35.1 °F 97% 29.75 in 0.5 mi Calm Calm - N/A Fog Fog
2:16 AM 35.6 °F - 35.6 °F 100% 29.71 in 0.2 mi Calm Calm - N/A Fog Fog
2:53 AM 35.1 °F 30.1 °F 34.0 °F 96% 29.73 in 0.2 mi SW 5.8 mph - N/A Fog Fog
3:50 AM 35.6 °F 26.2 °F 33.8 °F 93% 29.76 in 0.2 mi WSW 15.0 mph - N/A Fog Fog
3:53 AM 34.0 °F 24.2 °F 33.1 °F 96% 29.79 in 0.2 mi WSW 15.0 mph - N/A Fog Fog
4:42 AM 33.8 °F 25.3 °F 32.0 °F 93% 29.84 in 0.5 mi SW 11.5 mph - 0.01 in Fog , Snow Snow
4:53 AM 33.1 °F 25.5 °F 32.0 °F 96% 29.88 in 0.8 mi SW 9.2 mph - 0.04 in Snow Light Snow
5:23 AM 32.0 °F 24.2 °F 30.2 °F 93% 29.87 in 0.2 mi South 9.2 mph - 0.05 in Fog , Snow Heavy Snow
5:45 AM 32.0 °F 24.8 °F 30.2 °F 93% 29.89 in 0.5 mi South 8.1 mph - 0.09 in Fog , Snow Snow
5:53 AM 32.0 °F 24.8 °F 30.9 °F 96% 29.93 in 0.5 mi South 8.1 mph - 0.11 in Fog , Snow Snow
6:53 AM 33.1 °F 22.2 °F 30.9 °F 92% 29.96 in 0.8 mi South 17.3 mph - 0.06 in Snow Light Snow
7:07 AM 33.8 °F 23.9 °F 30.2 °F 87% 29.95 in 0.5 mi SSW 15.0 mph - 0.01 in Fog , Snow Snow
7:09 AM 33.8 °F 23.5 °F 30.2 °F 87% 29.95 in 0.2 mi SSW 16.1 mph - 0.01 in Fog , Snow Snow
7:26 AM 33.8 °F 23.5 °F 30.2 °F 87% 29.96 in 0.5 mi SSW 16.1 mph - 0.02 in Fog , Snow Snow
7:41 AM 33.8 °F 24.3 °F 30.2 °F 87% 29.98 in 0.5 mi SSW 13.8 mph - 0.03 in Fog , Snow Snow
7:53 AM 33.1 °F 23.9 °F 32.0 °F 96% 30.01 in 0.8 mi South 12.7 mph - 0.03 in Snow Light Snow
8:01 AM 33.8 °F 24.8 °F 30.2 °F 87% 29.98 in 1.5 mi South 12.7 mph - 0.00 in Snow Light Snow
8:05 AM 33.8 °F 24.3 °F 30.2 °F 87% 29.98 in 3.0 mi South 13.8 mph - 0.00 in Snow Light Snow
8:16 AM 33.8 °F 25.3 °F 32.0 °F 93% 29.99 in 10.0 mi South 11.5 mph - 0.00 in   Overcast
8:53 AM 36.0 °F 28.0 °F 32.0 °F 86% 30.03 in 10.0 mi SSW 11.5 mph - 0.00 in   Overcast
9:53 AM 37.9 °F 30.0 °F 33.1 °F 83% 30.04 in 10.0 mi SSW 12.7 mph - N/A   Overcast
10:53 AM 39.9 °F 31.1 °F 32.0 °F 73% 30.06 in 10.0 mi South 17.3 mph 26.5 mph N/A   Partly Cloudy
11:53 AM 43.0 °F 38.8 °F 33.1 °F 68% 30.08 in 10.0 mi West 6.9 mph - N/A   Mostly Cloudy
12:09 PM 42.8 °F 38.6 °F 32.0 °F 66% 30.05 in 10.0 mi West 6.9 mph - N/A   Overcast
12:53 PM 44.1 °F 40.1 °F 32.0 °F 63% 30.08 in 10.0 mi West 6.9 mph - N/A   Overcast
1:53 PM 45.0 °F 43.5 °F 28.9 °F 53% 30.06 in 10.0 mi Variable 3.5 mph - N/A   Partly Cloudy
2:53 PM 46.9 °F - 28.0 °F 48% 30.02 in 10.0 mi Calm Calm - N/A   Clear
3:53 PM 50.0 °F - 28.9 °F 44% 29.99 in 10.0 mi Calm Calm - N/A   Partly Cloudy
4:53 PM 46.9 °F - 27.0 °F 46% 29.98 in 10.0 mi Calm Calm - N/A   Overcast
5:53 PM 46.9 °F - 33.1 °F 59% 29.96 in 10.0 mi NE 9.2 mph - N/A   Overcast
6:53 PM 44.6 °F 42.2 °F 33.8 °F 66% 29.92 in 10.0 mi NE 4.6 mph - N/A   Overcast
7:53 PM 43.0 °F 39.5 °F 35.1 °F 74% 29.94 in 10.0 mi North 5.8 mph - N/A   Overcast
8:53 PM 42.1 °F 39.2 °F 35.1 °F 76% 29.93 in 10.0 mi North 4.6 mph - N/A   Overcast
9:53 PM 41.0 °F 38.0 °F 35.1 °F 79% 29.94 in 10.0 mi WNW 4.6 mph - N/A   Overcast
10:53 PM 41.0 °F 39.0 °F 34.0 °F 76% 29.93 in 10.0 mi South 3.5 mph - N/A   Overcast
11:53 PM 41.0 °F 39.0 °F 35.1 °F 79% 29.94 in 10.0 mi SSW 3.5 mph - N/A   Overcast